• In Uzbekistan
  • List of Countries
  • For 7 days
  • Water Temperature
  • Satellite Maps
  • Weather Map
  • Weather Widgets
  • user-avatar
    Login

    Hourly Weather Serowe

    Today, 21 April, Sunday

    Time Temperature Precipitation Wind Pressure Humidity
    00:00 +20°C° 0 mm 2 mps 668 mmHg 49%
    01:00 +20°C° 0 mm 2 mps 668 mmHg 50%
    02:00 +19°C° 0 mm 2 mps 668 mmHg 52%
    03:00 +19°C° 0 mm 2 mps 667 mmHg 55%
    04:00 +18°C° 0 mm 2 mps 667 mmHg 57%
    05:00 +18°C° 0 mm 2 mps 667 mmHg 60%
    06:00 +19°C° 0 mm 2 mps 668 mmHg 56%
    07:00 +20°C° 0 mm 3 mps 668 mmHg 53%
    08:00 +21°C° 0 mm 3 mps 669 mmHg 49%
    09:00 +23°C° 0 mm 4 mps 669 mmHg 42%
    10:00 +27°C° 0 mm 4 mps 670 mmHg 34%
    11:00 +30°C° 0 mm 5 mps 670 mmHg 27%
    12:00 +30°C° 0 mm 5 mps 670 mmHg 26%
    13:00 +32°C° 0 mm 5 mps 669 mmHg 25%
    14:00 +32°C° 0 mm 6 mps 668 mmHg 24%
    15:00 +32°C° 0 mm 5 mps 668 mmHg 25%
    16:00 +30°C° 0 mm 5 mps 668 mmHg 27%
    17:00 +29°C° 0 mm 5 mps 667 mmHg 28%
    18:00 +27°C° 0 mm 4 mps 667 mmHg 33%
    19:00 +26°C° 0 mm 4 mps 667 mmHg 37%
    20:00 +24°C° 0 mm 3 mps 667 mmHg 42%
    21:00 +22°C° 0 mm 3 mps 667 mmHg 45%
    22:00 +22°C° 0 mm 4 mps 667 mmHg 47%
    23:00 +21°C° 0 mm 4 mps 667 mmHg 50%

    Tomorrow, 22 April, Monday

    Time Temperature Precipitation Wind Pressure Humidity
    00:00 +21°C° 0 mm 4 mps 667 mmHg 56%
    01:00 +20°C° 0 mm 4 mps 667 mmHg 62%
    02:00 +20°C° 0 mm 5 mps 667 mmHg 67%
    03:00 +19°C° 0 mm 5 mps 667 mmHg 71%
    04:00 +19°C° 0 mm 5 mps 667 mmHg 75%
    05:00 +17°C° 0 mm 5 mps 667 mmHg 80%
    06:00 +19°C° 0 mm 5 mps 667 mmHg 78%
    07:00 +19°C° 0 mm 6 mps 668 mmHg 77%
    08:00 +18°C° 0 mm 7 mps 668 mmHg 76%
    09:00 +20°C° 0 mm 7 mps 668 mmHg 70%
    10:00 +21°C° 0 mm 7 mps 669 mmHg 64%
    11:00 +23°C° 0 mm 7 mps 669 mmHg 59%
    12:00 +24°C° 0 mm 6 mps 669 mmHg 54%
    13:00 +26°C° 0 mm 6 mps 668 mmHg 49%
    14:00 +27°C° 0 mm 6 mps 668 mmHg 44%
    15:00 +27°C° 0 mm 6 mps 667 mmHg 45%
    16:00 +26°C° 0 mm 5 mps 667 mmHg 46%
    17:00 +26°C° 0 mm 5 mps 667 mmHg 47%
    18:00 +25°C° 0 mm 5 mps 667 mmHg 53%
    19:00 +22°C° 0 mm 5 mps 667 mmHg 58%
    20:00 +21°C° 0 mm 5 mps 667 mmHg 63%
    21:00 +20°C° 0 mm 5 mps 667 mmHg 67%
    22:00 +20°C° 0 mm 6 mps 667 mmHg 71%
    23:00 +19°C° 0 mm 6 mps 667 mmHg 75%

    Day after tomorrow, 23 April, Tuesday

    Time Temperature Precipitation Wind Pressure Humidity
    00:00 +19°C° 0 mm 6 mps 667 mmHg 77%
    01:00 +17°C° 0 mm 6 mps 667 mmHg 78%
    02:00 +17°C° 0 mm 6 mps 667 mmHg 80%
    03:00 +17°C° 0.3 mm 6 mps 667 mmHg 81%
    04:00 +17°C° 0.3 mm 5 mps 667 mmHg 81%
    05:00 +17°C° 0.3 mm 5 mps 667 mmHg 82%
    06:00 +17°C° 1.3 mm 5 mps 668 mmHg 83%
    07:00 +17°C° 1.3 mm 6 mps 668 mmHg 83%
    08:00 +17°C° 1.3 mm 7 mps 669 mmHg 84%
    09:00 +18°C° 0 mm 7 mps 669 mmHg 77%
    10:00 +20°C° 0 mm 7 mps 670 mmHg 71%
    11:00 +21°C° 0 mm 7 mps 670 mmHg 65%
    12:00 +22°C° 0 mm 6 mps 670 mmHg 62%
    13:00 +22°C° 0 mm 5 mps 669 mmHg 60%
    14:00 +23°C° 0 mm 5 mps 668 mmHg 57%
    15:00 +23°C° 0 mm 5 mps 668 mmHg 57%
    16:00 +23°C° 0 mm 4 mps 668 mmHg 57%
    17:00 +23°C° 0 mm 4 mps 668 mmHg 56%
    18:00 +22°C° 0 mm 4 mps 668 mmHg 61%
    19:00 +21°C° 0 mm 4 mps 668 mmHg 65%
    20:00 +20°C° 0 mm 4 mps 668 mmHg 70%
    21:00 +19°C° 0 mm 4 mps 669 mmHg 72%
    22:00 +19°C° 0 mm 4 mps 669 mmHg 73%
    23:00 +18°C° 0 mm 4 mps 669 mmHg 75%

    24 April, Wednesday

    Time Temperature Precipitation Wind Pressure Humidity
    00:00 +18°C° 0 mm 4 mps 669 mmHg 78%
    01:00 +18°C° 0 mm 4 mps 668 mmHg 80%
    02:00 +17°C° 0 mm 4 mps 668 mmHg 83%
    03:00 +17°C° 0 mm 4 mps 668 mmHg 84%
    04:00 +17°C° 0 mm 4 mps 668 mmHg 86%
    05:00 +15°C° 0 mm 4 mps 668 mmHg 88%
    06:00 +17°C° 0 mm 4 mps 669 mmHg 85%
    07:00 +17°C° 0 mm 5 mps 669 mmHg 82%
    08:00 +19°C° 0 mm 6 mps 670 mmHg 79%
    09:00 +20°C° 0 mm 6 mps 670 mmHg 71%
    10:00 +22°C° 0 mm 6 mps 671 mmHg 62%
    11:00 +24°C° 0 mm 6 mps 671 mmHg 54%
    12:00 +27°C° 0 mm 5 mps 670 mmHg 49%
    13:00 +28°C° 0 mm 4 mps 670 mmHg 44%
    14:00 +30°C° 0 mm 4 mps 669 mmHg 38%
    15:00 +29°C° 0 mm 4 mps 669 mmHg 39%
    16:00 +29°C° 0 mm 3 mps 669 mmHg 39%
    17:00 +29°C° 0 mm 3 mps 669 mmHg 40%
    18:00 +27°C° 0 mm 3 mps 669 mmHg 46%
    19:00 +25°C° 0 mm 3 mps 669 mmHg 52%
    20:00 +24°C° 0 mm 3 mps 669 mmHg 58%
    21:00 +22°C° 0 mm 3 mps 669 mmHg 60%
    22:00 +21°C° 0 mm 3 mps 669 mmHg 62%
    23:00 +21°C° 0 mm 3 mps 669 mmHg 65%

    25 April, Thursday

    Time Temperature Precipitation Wind Pressure Humidity
    00:00 +20°C° 0 mm 3 mps 669 mmHg 67%
    01:00 +20°C° 0 mm 3 mps 669 mmHg 70%
    02:00 +19°C° 0 mm 3 mps 669 mmHg 72%
    03:00 +19°C° 0 mm 3 mps 669 mmHg 77%
    04:00 +18°C° 0 mm 3 mps 668 mmHg 81%
    05:00 +18°C° 0 mm 3 mps 668 mmHg 85%
    06:00 +18°C° 0 mm 3 mps 669 mmHg 82%
    07:00 +19°C° 0 mm 4 mps 669 mmHg 79%
    08:00 +20°C° 0 mm 5 mps 670 mmHg 76%
    09:00 +22°C° 0 mm 4 mps 670 mmHg 66%
    10:00 +26°C° 0 mm 4 mps 670 mmHg 55%
    11:00 +28°C° 0 mm 4 mps 671 mmHg 45%
    12:00 +29°C° 0 mm 3 mps 670 mmHg 40%
    13:00 +30°C° 0 mm 3 mps 669 mmHg 34%
    14:00 +31°C° 0 mm 2 mps 668 mmHg 29%
    15:00 +31°C° 0 mm 2 mps 668 mmHg 28%
    16:00 +31°C° 0 mm 2 mps 668 mmHg 27%
    17:00 +31°C° 0 mm 2 mps 668 mmHg 26%
    18:00 +29°C° 0 mm 2 mps 668 mmHg 30%
    19:00 +27°C° 0 mm 2 mps 668 mmHg 34%
    20:00 +25°C° 0 mm 2 mps 668 mmHg 39%
    21:00 +24°C° 0 mm 2 mps 668 mmHg 44%
    22:00 +24°C° 0 mm 2 mps 667 mmHg 50%
    23:00 +23°C° 0 mm 2 mps 667 mmHg 56%

    26 April, Friday

    Time Temperature Precipitation Wind Pressure Humidity
    00:00 +21°C° 0 mm 2 mps 667 mmHg 59%
    01:00 +21°C° 0 mm 2 mps 667 mmHg 62%
    02:00 +20°C° 0 mm 2 mps 667 mmHg 66%
    03:00 +20°C° 0 mm 2 mps 666 mmHg 68%
    04:00 +20°C° 0 mm 2 mps 666 mmHg 71%
    05:00 +19°C° 0 mm 2 mps 666 mmHg 74%
    06:00 +20°C° 0 mm 2 mps 667 mmHg 69%
    07:00 +21°C° 0 mm 3 mps 668 mmHg 64%
    08:00 +22°C° 0 mm 3 mps 668 mmHg 60%
    09:00 +25°C° 0 mm 3 mps 668 mmHg 53%
    10:00 +26°C° 0 mm 2 mps 669 mmHg 46%
    11:00 +28°C° 0 mm 2 mps 669 mmHg 39%
    12:00 +30°C° 0 mm 1 mps 668 mmHg 34%
    13:00 +32°C° 0 mm 1 mps 668 mmHg 28%
    14:00 +32°C° 0 mm 0 mps 668 mmHg 22%
    15:00 +33°C° 0 mm 1 mps 668 mmHg 23%
    16:00 +32°C° 0 mm 1 mps 667 mmHg 23%
    17:00 +31°C° 0 mm 1 mps 667 mmHg 23%
    18:00 +30°C° 0 mm 1 mps 667 mmHg 26%
    19:00 +29°C° 0 mm 2 mps 667 mmHg 29%
    20:00 +27°C° 0 mm 2 mps 667 mmHg 31%
    21:00 +27°C° 0 mm 2 mps 667 mmHg 32%
    22:00 +26°C° 0 mm 2 mps 667 mmHg 34%
    23:00 +26°C° 0 mm 2 mps 667 mmHg 35%
    Show more